Weather History for Lone Rock, WI

Change the Weather History Date:

Monday, December 31, 2012

  Actual Average Record
Temperature  
Mean Temperature 20 °F -  
Max Temperature 33 °F 27 °F 48 °F (2004)
Min Temperature 5 °F 12 °F -14 °F (2013)
Degree Days  
Heating Degree Days 45    
Moisture  
Dew Point 12 °F    
Average Humidity 72    
Maximum Humidity 86    
Minimum Humidity 57    
Precipitation  
Precipitation 0.00 in - - ()
Sea Level Pressure  
Sea Level Pressure 30.08 in    
Wind  
Wind Speed 8 mph (WNW)    
Max Wind Speed 13 mph    
Max Gust Speed -    
Visibility 8 miles    
Events      
Averages and records for this station are not official NWS values.
T = Trace of Precipitation, MM = Missing Value Source: NWS Daily Summary

Daily Weather History Graph

Daily Weather History Graph

Search for Another Location

Airport:

Trip Planner

Search our weather history database for the weather conditions in past years. The results will help you decide how hot, cold, wet, or windy it might be!

Date:

Astronomy

Dec. 31, 2012 Rise Set
Actual Time 7:32 AM CST 4:35 PM CST
Civil Twilight 7:00 AM CST 5:07 PM CST
Nautical Twilight 6:24 AM CST 5:43 PM CST
Astronomical Twilight 5:49 AM CST 6:18 PM CST
Moon 8:12 PM CST (12/31) 9:08 AM CST (12/31)
Length of Visible Light 10h 07m
Length of Day
9h 02m
Waning Gibbous, 90% of the Moon is Illuminated
Dec 31
Waning Gibbous
Jan 4
Last Quarter
Jan 11
New
Jan 18
First Quarter
Jan 26
Full

Hourly Weather History & Observations

Time (CST) Temp. Windchill Dew Point Humidity Pressure Visibility Wind Dir Wind Speed Gust Speed Precip Events Conditions
12:56 AM 33.1 °F 25.5 °F 23.0 °F 66% 29.94 in 10.0 mi WSW 9.2 mph - N/A   Clear
1:56 AM 28.9 °F - 21.0 °F 72% 29.97 in 10.0 mi Calm Calm - N/A   Clear
2:56 AM 28.0 °F 20.8 °F 21.0 °F 75% 29.98 in 10.0 mi West 6.9 mph - N/A   Clear
3:56 AM 27.0 °F 18.0 °F 19.9 °F 75% 30.01 in 10.0 mi West 9.2 mph - N/A   Clear
4:56 AM 26.1 °F 15.6 °F 18.0 °F 71% 30.02 in 10.0 mi West 11.5 mph - N/A   Clear
5:56 AM 21.0 °F 12.4 °F 16.0 °F 81% 30.04 in 9.0 mi West 6.9 mph - N/A   Clear
6:56 AM 21.0 °F 9.9 °F 15.1 °F 78% 30.06 in 9.0 mi WNW 10.4 mph - N/A   Clear
7:39 AM 21.2 °F 8.9 °F 14.0 °F 74% 30.03 in 7.0 mi WNW 12.7 mph - N/A   Mostly Cloudy
7:56 AM 21.0 °F 10.6 °F 15.1 °F 78% 30.06 in 6.0 mi WNW 9.2 mph - N/A   Haze
8:08 AM 19.4 °F 8.6 °F 15.8 °F 86% 30.04 in 5.0 mi WNW 9.2 mph - N/A   Haze
8:56 AM 21.0 °F 11.4 °F 15.1 °F 78% 30.08 in 5.0 mi WNW 8.1 mph - N/A   Haze
9:56 AM 21.0 °F 11.4 °F 15.1 °F 78% 30.10 in 4.0 mi NW 8.1 mph - N/A   Haze
10:56 AM 21.0 °F 9.9 °F 14.0 °F 74% 30.10 in 4.0 mi WNW 10.4 mph - N/A   Haze
11:56 AM 19.9 °F 7.9 °F 14.0 °F 78% 30.09 in 4.0 mi WNW 11.5 mph - N/A   Haze
12:27 PM 19.4 °F 8.6 °F 12.2 °F 74% 30.08 in 5.0 mi WNW 9.2 mph - N/A   Haze
12:56 PM 19.9 °F 8.6 °F 12.0 °F 71% 30.09 in 7.0 mi WNW 10.4 mph - N/A   Mostly Cloudy
1:08 PM 21.2 °F 11.7 °F 12.2 °F 68% 30.07 in 8.0 mi WNW 8.1 mph - N/A   Scattered Clouds
1:56 PM 21.0 °F 12.4 °F 10.0 °F 63% 30.09 in 9.0 mi WNW 6.9 mph - N/A   Clear
2:56 PM 19.9 °F 10.1 °F 7.0 °F 57% 30.10 in 10.0 mi NW 8.1 mph - N/A   Clear
3:56 PM 19.9 °F 13.4 °F 7.0 °F 57% 30.10 in 10.0 mi WNW 4.6 mph - N/A   Clear
5:56 PM 15.1 °F 6.4 °F 5.0 °F 64% 30.14 in 10.0 mi WNW 5.8 mph - N/A   Clear
6:56 PM 12.0 °F 5.9 °F 3.9 °F 70% 30.16 in 10.0 mi WNW 3.5 mph - N/A   Clear
7:56 PM 7.0 °F -1.7 °F -0.0 °F 73% 30.18 in 10.0 mi NNW 4.6 mph - N/A   Clear
9:56 PM 12.0 °F 4.1 °F 1.9 °F 64% 30.20 in 10.0 mi NW 4.6 mph - N/A   Clear
10:56 PM 7.0 °F 0.1 °F -0.0 °F 73% 30.22 in 10.0 mi WSW 3.5 mph - N/A   Clear
11:56 PM 5.0 °F -5.6 °F -0.9 °F 76% 30.23 in 9.0 mi WSW 5.8 mph - N/A   Clear